DW6828 Weather Reports


time (UTC)temp
C
wind
direction
speed
KPH
gust
KPH
rain 1hr
cm
rain 24hr
cm
rain mn
cm
humidity
%
barometer
mb
20260510060039 11 0 0.0 8.0 0.00 0.25 0.00 100 1002.6
20260510054537 11 0 0.0 11.3 0.00 0.25 0.00 100 1002.5
20260510053043 11 0 0.0 16.1 0.00 0.25 0.00 100 1002.4
20260510051546 11 0 0.0 8.0 0.00 0.25 0.00 100 1002.3
20260510050042 11 0 0.0 12.9 0.00 0.25 0.00 100 1002.1
20260510044541 11 0 0.0 12.9 0.00 0.25 0.00 100 1001.6
20260510043042 12 188 0.0 6.4 0.00 0.25 0.00 100 1001.4
20260510041537 12 212 0.0 11.3 0.00 0.25 0.00 100 1001.2
20260510040037 12 0 0.0 4.8 0.05 0.25 0.00 100 1001.3
20260510034547 11 0 0.0 4.8 0.20 0.25 0.25 100 1001.3
20260510033051 12 0 0.0 6.4 0.25 0.25 0.25 100 1001.3
20260510031539 12 0 0.0 4.8 0.23 0.23 0.23 100 1001.1
20260510030042 12 0 0.0 6.4 0.18 0.18 0.18 100 1001.3
20260510024540 13 0 0.0 6.4 0.00 0.00 0.00 39 1001.4
20260510023037 14 0 0.0 6.4 0.00 0.00 0.00 59 1000.7
20260510021543 14 0 0.0 4.8 0.00 0.00 0.00 60 1000.6
20260510020045 14 119 0.0 4.8 0.00 0.00 0.00 60 1000.7
20260510014545 15 0 0.0 1.6 0.00 0.00 0.00 61 1001.1
20260510013038 15 0 0.0 0.0 0.00 0.00 0.00 61 1001.2
20260510011542 15 0 0.0 1.6 0.00 0.00 0.00 60 1001.2
20260510010038 15 137 0.0 0.0 0.00 0.00 0.00 59 1001.2
20260510004538 16 0 0.0 3.2 0.00 0.00 0.00 59 1001.2
20260510003042 16 0 0.0 0.0 0.00 0.00 0.00 58 1001.3
20260510001542 16 0 0.0 4.8 0.00 0.00 0.00 57 1001.6
20260510000059 16 0 0.0 9.7 0.00 0.00 0.00 56 1001.7
20260509234550 17 0 0.0 14.5 0.00 0.00 0.00 55 1002.1
20260509233036 17 180 1.6 11.3 0.00 0.00 0.00 53 1002.0
20260509231535 17 0 1.6 24.1 0.00 0.00 0.00 50 1002.0
20260509230043 18 232 1.6 9.7 0.00 0.00 0.00 44 1001.6
20260509224541 18 0 0.0 9.7 0.00 0.00 0.00 43 1001.5
20260509223042 18 0 0.0 6.4 0.00 0.00 0.00 42 1001.3
20260509221543 18 0 0.0 12.9 0.00 0.00 0.00 40 1001.3
20260509220039 19 0 0.0 17.7 0.00 0.00 0.00 39 1001.4
20260509214537 19 0 0.0 9.7 0.00 0.00 0.00 37 1001.6
20260509213043 19 0 0.0 9.7 0.00 0.00 0.00 37 1001.7
20260509211542 20 0 0.0 12.9 0.00 0.00 0.00 34 1001.7
20260509210045 21 131 0.0 12.9 0.00 0.00 0.00 32 1001.8
20260509204546 21 0 1.6 19.3 0.00 0.00 0.00 29 1001.7
20260509203043 22 0 0.0 16.1 0.00 0.00 0.00 27 1001.8
20260509201546 22 0 1.6 12.9 0.00 0.00 0.00 26 1001.9
20260509200055 22 0 1.6 14.5 0.00 0.00 0.00 24 1002.2
20260509194540 21 0 0.0 16.1 0.00 0.00 0.00 25 1002.2
20260509193039 21 0 0.0 11.3 0.00 0.00 0.00 26 1002.3
20260509191537 21 0 0.0 12.9 0.00 0.00 0.00 26 1002.4
20260509190041 20 125 0.0 11.3 0.00 0.00 0.00 26 1002.8
20260509184555 20 0 0.0 4.8 0.00 0.00 0.00 27 1003.1
20260509183039 20 117 0.0 16.1 0.00 0.00 0.00 25 1003.6
20260509181545 20 0 0.0 9.7 0.00 0.00 0.00 27 1003.7
20260509180044 20 235 0.0 12.9 0.00 0.00 0.00 27 1004.1
20260509174543 20 0 0.0 17.7 0.00 0.00 0.00 27 1004.0
20260509173044 20 0 0.0 11.3 0.00 0.00 0.00 27 1004.0
20260509171539 20 0 0.0 9.7 0.00 0.00 0.00 28 1004.4
20260509170039 20 198 0.0 12.9 0.00 0.00 0.00 28 1004.9
20260509164537 19 0 0.0 9.7 0.00 0.00 0.00 29 1005.1
20260509163040 18 0 0.0 12.9 0.00 0.00 0.00 29 1005.4
20260509161539 18 250 0.0 9.7 0.00 0.00 0.00 31 1005.6
20260509160044 18 0 0.0 12.9 0.00 0.00 0.00 33 1005.8
20260509154541 17 0 0.0 3.2 0.00 0.00 0.00 37 1006.2
20260509153043 16 0 0.0 3.2 0.00 0.00 0.00 41 1006.7
20260509151544 16 0 0.0 6.4 0.00 0.00 0.00 41 1007.1
20260509150044 15 0 1.6 11.3 0.00 0.00 0.00 43 1007.3
20260509144555 14 0 0.0 9.7 0.00 0.00 0.00 44 1007.4
20260509143040 13 0 1.6 12.9 0.00 0.00 0.00 47 1007.5
20260509141540 12 0 0.0 0.0 0.00 0.00 0.00 49 1007.7
20260509140044 11 0 0.0 1.6 0.00 0.00 0.00 50 1007.8
20260509134559 11 0 0.0 1.6 0.00 0.00 0.00 51 1007.9
20260509133045 10 0 0.0 1.6 0.00 0.00 0.00 52 1008.1
20260509131539 10 0 0.0 3.2 0.00 0.00 0.00 54 1008.3
20260509130052 9 0 0.0 4.8 0.00 0.00 0.00 54 1008.4
20260509124538 8 89 0.0 0.0 0.00 0.00 0.00 57 1008.5
20260509123035 7 0 0.0 0.0 0.00 0.00 0.00 59 1008.7
20260509121600 7 0 0.0 0.0 0.00 0.00 0.00 60 1008.7
20260509120039 6 0 0.0 6.4 0.00 0.00 0.00 60 1008.8
20260509114540 6 0 0.0 3.2 0.00 0.00 0.00 62 1008.7
20260509113039 5 0 0.0 1.6 0.00 0.00 0.00 59 1008.6
20260509111558 4 0 0.0 1.6 0.00 0.00 0.00 52 1008.6
20260509110042 3 0 0.0 0.0 0.00 0.00 0.00 50 1008.4
20260509104545 3 0 0.0 1.6 0.00 0.00 0.00 49 1008.4
20260509103048 3 0 0.0 0.0 0.00 0.00 0.00 52 1008.1
20260509101608 3 0 0.0 0.0 0.00 0.00 0.00 53 1008.0
20260509100042 3 0 0.0 0.0 0.00 0.00 0.00 53 1007.9
20260509094543 3 0 0.0 0.0 0.00 0.00 0.00 54 1008.0
20260509093043 3 0 0.0 0.0 0.00 0.00 0.00 54 1007.8
20260509091543 3 0 0.0 0.0 0.00 0.00 0.00 54 1007.9
20260509090101 3 0 0.0 0.0 0.00 0.00 0.00 55 1007.8
20260509084538 3 0 0.0 0.0 0.00 0.00 0.00 56 1007.9
20260509083042 3 0 0.0 0.0 0.00 0.00 0.00 58 1007.9
20260509081543 3 0 0.0 0.0 0.00 0.00 0.00 61 1008.0
20260509080038 3 0 0.0 0.0 0.00 0.00 0.00 63 1007.8
20260509074544 4 0 0.0 0.0 0.00 0.00 0.00 63 1007.9
20260509073053 5 0 0.0 0.0 0.00 0.00 0.00 64 1007.9
20260509071547 5 0 0.0 0.0 0.00 0.00 0.00 64 1007.9
20260509070045 5 0 0.0 0.0 0.00 0.00 0.00 65 1007.9
20260509064546 6 0 0.0 0.0 0.00 0.00 0.00 65 1008.0
20260509063038 6 0 0.0 0.0 0.00 0.00 0.00 64 1008.0
20260509061536 6 0 0.0 0.0 0.00 0.00 0.00 64 1008.0